Regional Weather Roundup
Issued by NWS Cleveland, OH

Home | Current Version | Previous Version | Text Only | Print | Product List | Glossary On
Versions: 1 2 3 4 5 6 7 8 9 10 11 12 13 14 15 16 17 18 19 20 21 22 23 24 25 26 27 28 29 30 31 32 33 34 35 36 37 38 39 40 41 42 43 44 45 46 47 48 49 50
000
ASUS41 KCLE 182012
RWRCLE
OHIO REGIONAL WEATHER ROUNDUP
NATIONAL WEATHER SERVICE WILMINGTON, OH
300 PM EST SUN FEB 18 2018

NOTE: "FAIR" INDICATES FEW OR NO CLOUDS BELOW 12,000 FEET WITH NO
SIGNIFICANT WEATHER AND/OR OBSTRUCTIONS TO VISIBILITY.

OHZ001>008-015>018-024>027-034-035-043-044-182100-
   NORTHWEST OHIO

CITY           SKY/WX    TMP DP  RH WIND       PRES   REMARKS
DEFIANCE       FAIR      35  29  78 S7        30.29F WCI  29
FINDLAY        FAIR      41  29  62 S8        30.28F
TOLEDO EXPRESS PTSUNNY   35  28  75 S10       30.31F WCI  27
TOLEDO EXEC    CLOUDY    37  28  70 SW14      30.33F
LIMA           FAIR      40  32  73 SE9       30.27F
$$

OHZ009>014-019>023-028>033-038-089-182100-
   NORTHEAST OHIO

CITY           SKY/WX    TMP DP  RH WIND       PRES   REMARKS
CLE-HOPKINS    PTSUNNY   42  28  57 SW12      30.35R
CLE-LAKEFRONT  FAIR      35  27  72 NW5       30.34R
CUY CO. ARPT   CLOUDY    43  28  56 S14       30.33R
LORAIN-ELYRIA  PTSUNNY   41  25  53 VRB5      30.32S
ASHTABULA      FAIR      39  27  62 SW7       30.33R
AKRON-CANTON   PTSUNNY   42  27  55 SW15      30.32S
WOOSTER        FAIR      41  28  60 S13       30.32F
MANSFIELD      FAIR      40  29  64 S14       30.30F
YOUNGSTOWN     PTSUNNY   41  27  57 S10       30.32R
$$

OHZ042-051>053-060>062-070>072-077>081-182100-
  SOUTHWEST OHIO

CITY           SKY/WX    TMP DP  RH WIND       PRES   REMARKS
CINC-COVINGTON PTSUNNY   46  34  62 SE10      30.25F
CINC-LUNKEN    FAIR      47  31  53 SE8       30.27F
HAMILTON       FAIR      47  31  53 VRB7      30.27F
DAYTON         CLOUDY    43  31  62 SE16      30.26F
WRIGHT-PAT AFB FAIR      45  30  55 E13       30.26F
DAYTON GENERAL FAIR      44  32  62 SE12      30.25F
WILMINGTON     FAIR      43  34  70 SE12      30.26F
$$

OHZ036-037-039>041-045>050-054>059-063>069-073>076-082>088-182100-
  CENTRAL AND SOUTHEAST OHIO

CITY           SKY/WX    TMP DP  RH WIND       PRES   REMARKS
COLUMBUS       CLOUDY    43  28  55 SE10      30.31F
OSU AIRPORT    FAIR      41  30  65 SE9       30.29F
BOLTON FIELD   SUNNY     41  30  65 SE12      30.31F
RICKENBACK AFB FAIR      42  31  65 SE10      30.31F
NEWARK         FAIR      41  28  60 SE8       30.32F
MARION         FAIR      41  28  60 S12       30.29F
LANCASTER      FAIR      42  29  59 SE9       30.33F
ZANESVILLE     FAIR      41  28  60 E6        30.34F
NEW PHILLY     FAIR      42  27  55 S10G18    30.36R
$$




USA.gov is the U.S. government's official web portal to all federal, state and local government web resources and services.